Weather History for Grand Junction, CO

Change the Weather History Date:

Monday, June 17, 2013

  Actual Average Record
Temperature  
Mean Temperature 75 °F 73 °F  
Max Temperature 91 °F 88 °F 100 °F (1940)
Min Temperature 59 °F 57 °F 40 °F (1957)
Degree Days  
Heating Degree Days 0 0  
Month to date heating degree days 5 20  
Since 1 June heating degree days 5 20  
Since 1 July heating degree days 6056 5609  
Cooling Degree Days 10 8  
Month to date cooling degree days 149 100  
Year to date cooling degree days 204 151  
Since 1 June cooling degree days 149 100  
Growing Degree Days 25 (Base 50)    
Moisture  
Dew Point 32 °F    
Average Humidity 28    
Maximum Humidity 46    
Minimum Humidity 9    
Precipitation  
Precipitation T in 0.01 in 0.91 in (1995)
Month to date precipitation 0.01 0.28  
Year to date precipitation 3.42 4.11  
Snow  
Snow 0.00 in 0.00 in 0.00 in (2013)
Month to date snowfall 0.0 0.0  
Since 1 June snowfall 0.0 0.0  
Since 1 July snowfall 24.6 19.1  
Snow Depth 0.00 in    
Sea Level Pressure  
Sea Level Pressure 29.82 in    
Wind  
Wind Speed 10 mph (ESE)    
Max Wind Speed 46 mph    
Max Gust Speed 55 mph    
Visibility 10 miles    
Events Rain    
T = Trace of Precipitation, MM = Missing Value Source: NWS Daily Summary

Daily Weather History Graph

Daily Weather History Graph

Search for Another Location

Airport:

Trip Planner

Search our weather history database for the weather conditions in past years. The results will help you decide how hot, cold, wet, or windy it might be!

Date:

Astronomy

Jun. 17, 2013 Rise Set
Actual Time 5:47 AM MDT 8:42 PM MDT
Civil Twilight 5:15 AM MDT 9:14 PM MDT
Nautical Twilight 4:34 AM MDT 9:55 PM MDT
Astronomical Twilight 3:47 AM MDT 10:42 PM MDT
Moon 2:26 PM MDT (6/17) 1:22 AM MDT (6/17)
Length of Visible Light 15h 59m
Length of Day
14h 55m
First Quarter, 61% of the Moon is Illuminated
Jun 17
First Quarter
Jun 23
Full
Jun 29
Last Quarter
Jul 8
New
Jul 15
First Quarter

Hourly Weather History & Observations

Time (MDT) Temp. Dew Point Humidity Pressure Visibility Wind Dir Wind Speed Gust Speed Precip Events Conditions
12:53 AM 73.9 °F 37.0 °F 26% 29.82 in 10.0 mi ENE 18.4 mph 23.0 mph N/A   Clear
1:53 AM 70.0 °F 37.9 °F 31% 29.82 in 10.0 mi SE 5.8 mph - N/A   Clear
2:53 AM 70.0 °F 37.9 °F 31% 29.81 in 10.0 mi East 15.0 mph - N/A   Clear
3:53 AM 66.0 °F 39.0 °F 37% 29.84 in 10.0 mi SE 10.4 mph - N/A   Clear
4:53 AM 62.1 °F 39.9 °F 44% 29.86 in 10.0 mi SE 11.5 mph - N/A   Clear
5:53 AM 60.1 °F 39.9 °F 47% 29.88 in 10.0 mi SE 9.2 mph - N/A   Clear
6:53 AM 66.0 °F 39.0 °F 37% 29.89 in 10.0 mi East 11.5 mph - N/A   Clear
7:53 AM 69.1 °F 41.0 °F 36% 29.89 in 10.0 mi SE 15.0 mph - N/A   Clear
8:53 AM 73.0 °F 39.0 °F 29% 29.91 in 10.0 mi SE 11.5 mph - N/A   Clear
9:53 AM 77.0 °F 39.0 °F 25% 29.90 in 10.0 mi SSE 10.4 mph - N/A   Clear
10:53 AM 80.1 °F 39.0 °F 23% 29.87 in 10.0 mi SE 8.1 mph - N/A   Partly Cloudy
11:53 AM 84.0 °F 35.1 °F 17% 29.84 in 10.0 mi Variable 5.8 mph - N/A   Scattered Clouds
12:53 PM 87.1 °F 30.9 °F 13% 29.81 in 10.0 mi Variable 5.8 mph - N/A   Scattered Clouds
1:43 PM 82.4 °F 26.6 °F 13% 30.04 in 9.0 mi NNW 20.7 mph 55.2 mph 0.00 in Rain Light Rain
1:53 PM 82.9 °F 26.1 °F 13% 29.82 in 10.0 mi NW 20.7 mph 34.5 mph 0.00 in   Scattered Clouds
2:00 PM 84.2 °F 26.6 °F 12% 30.03 in 10.0 mi NNW 18.4 mph 28.8 mph N/A   Mostly Cloudy
2:53 PM 90.0 °F 26.1 °F 10% 29.78 in 10.0 mi WSW 8.1 mph - N/A   Scattered Clouds
3:53 PM 91.0 °F 24.1 °F 9% 29.76 in 10.0 mi WNW 12.7 mph 20.7 mph N/A   Scattered Clouds
4:53 PM 88.0 °F 21.0 °F 9% 29.75 in 10.0 mi West 9.2 mph 25.3 mph N/A   Scattered Clouds
5:53 PM 88.0 °F 23.0 °F 9% 29.75 in 10.0 mi WSW 5.8 mph - N/A   Scattered Clouds
6:53 PM 88.0 °F 21.9 °F 9% 29.73 in 10.0 mi South 3.5 mph - N/A   Clear
7:53 PM 86.0 °F 28.0 °F 12% 29.73 in 10.0 mi ESE 3.5 mph - N/A   Clear
8:53 PM 82.0 °F 28.0 °F 14% 29.72 in 10.0 mi ENE 10.4 mph 18.4 mph N/A   Clear
9:53 PM 79.0 °F 28.0 °F 15% 29.73 in 10.0 mi ENE 10.4 mph - N/A   Clear
10:53 PM 75.0 °F 28.9 °F 18% 29.75 in 10.0 mi ESE 6.9 mph - N/A   Clear
11:53 PM 71.1 °F 28.0 °F 20% 29.76 in 10.0 mi East 10.4 mph - N/A   Clear